カタログに戻る

SL-12 DEB

LostHEO
NORAD 43376·DEBRIS·🇷🇺 Russia

打ち上げ Oct 26, 2007 から Baikonur Cosmodrome

Loading…

次のパス (今後24時間)

TLE

古いSource: Space-Track

元期: Feb 20, 2022, 15:52 UTC

1 43376U 07052AC  22051.66173821 -.00000250  00000-0 -85868-2 0  9997
2 43376  65.6188 201.2836 5584801 292.6709  18.8698  4.09374791108785

AllMySatでSL-12 DEBをリアルタイム追跡

Download on the App Store